Location: Cucq
(50.4773°N, 1.6202°E)
Time: 16:38:38
(UTC+00:00)

Cosmos 1072 Rocket - Pass Details

Date: 07 August 2020
Orbit: 949 x 1007 km, 82.9° (Epoch: 25 September)

Event Time Altitude Azimuth Distance (km) Brightness Sun altitude
Exits shadow 00:39:12 46° 200° (SSW) 1,257 4.6 -22.6°
Maximum altitude 00:41:09 80° 280° (W) 971 4.4 -22.6°
Drops below altitude 10° 00:47:18 10° 8° (N) 2,687 7.9 -22.4°
Sets 00:49:48 0° 10° (N) 3,637 9.0 -22.3°
